Location: Vihti�l�
(61.3833°N, 23.0667°E)
Time: 03:21:29
(UTC+00:00)

MOS 1-B - Pass Details

Date: 29 November 2020
Orbit: 905 x 914 km, 99.4° (Epoch: 19 January)

Event Time Altitude Azimuth Distance (km) Brightness Sun altitude
Rises 05:55:33 0° 21° (NNE) 3,565 7.3 -7.8°
Reaches altitude 10° 05:58:00 10° 17° (NNE) 2,620 6.6 -7.5°
Maximum altitude 06:03:41 56° 302° (WNW) 1,089 4.5 -7.0°
Drops below altitude 10° 06:09:20 10° 226° (SW) 2,604 6.6 -6.4°
Sets 06:11:47 0° 222° (SW) 3,542 7.4 -6.2°
